Home > Weather > Pyatigorsk > Past weeks

Flag for Russia Past Weather in Pyatigorsk, Russia — Yesterday and Last 2 Weeks

Now
84 °F

Thunderstorms. Partly sunny.


Feels Like: 87 °F
Forecast: 65 / 85 °F
Wind: 8 mph from East

Location: Mineral'Nye Vody

Current Time: Jun 29, 2016 at 3:49:48 PM

Latest Report: Jun 29, 2016 at 3:00 PM


Visibility: N/A

Pressure: 29.74 "Hg (28.00 "Hg at 533m altitude)

Humidity: 58%

Dew Point: 68 °F

Location of PyatigorskLocation

Past Weather in Pyatigorsk — Graph

°F

Pyatigorsk Temperature Yesterday

Maximum temperature yesterday: 86 °F (at 11:30 AM)
Minimum temperature yesterday: 63 °F (at 4:30 AM)
Average temperature yesterday: 75 °F

High & Low Weather Summary for the Past Weeks

 TemperatureHumidityPressure
High90 °F (Jun 20, 2:00 PM)100% (Jun 16, 1:00 AM)30.18 "Hg (Jun 16, 1:00 AM)
Low61 °F (Jun 19, 4:30 AM)31% (Jun 27, 12:00 PM)29.65 "Hg (Jun 15, 3:30 PM)
Average74 °F71%29.97 "Hg
* Reported Jun 14 2:00 PM — Jun 29 2:30 PM, Pyatigorsk, Weather by CustomWeather, © 2016

Note: Actual official high and low records may vary slightly from our data, if they occured in-between our weather recording intervals... More about our weather records

Advertising

Pyatigorsk Weather History for the Previous 24 Hours

Scroll right to see more
 ConditionsComfort  
Time TempWeatherWind HumidityBarometerVisibility
2:30 PM
Wed, Jun 29
90 °FThundershowers. Partly sunny.3 mph46%29.74 "HgN/A
2:00 PM88 °FPartly sunny.3 mph49%29.74 "HgN/A
1:30 PM86 °FClear.1 mph52%29.74 "HgN/A
1:00 PM86 °FScattered clouds.3 mph55%29.77 "HgN/A
12:30 PM84 °FClear.6 mph55%29.77 "HgN/A
12:00 PM84 °FScattered clouds.6 mph58%29.77 "HgN/A
11:00 AM81 °FClear.8 mph66%29.77 "HgN/A
10:30 AM81 °FClear.10 mph70%29.77 "HgN/A
10:00 AM77 °FClear.10 mph79%29.77 "HgN/A
9:30 AM77 °FClear.8 mph79%29.77 "HgN/A
9:00 AM77 °FScattered clouds.10 mph74%29.77 "HgN/A
8:30 AM75 °FScattered clouds.10 mph74%29.77 "HgN/A
8:00 AM73 °FClear.13 mph78%29.77 "HgN/A
7:30 AM73 °FClear.8 mph78%29.74 "HgN/A
7:00 AM73 °FClear.8 mph78%29.74 "HgN/A
6:30 AM72 °FClear.6 mph88%29.74 "HgN/A
6:00 AM70 °FClear.3 mph94%29.71 "HgN/A
5:00 AM68 °FScattered clouds.No wind94%29.71 "HgN/A
4:00 AM68 °FClear.1 mph94%29.71 "HgN/A
3:30 AM68 °FClear.3 mph94%29.71 "HgN/A
3:00 AM68 °FClear.1 mph94%29.68 "HgN/A
2:30 AM70 °FClear.6 mph88%29.68 "HgN/A
2:00 AM70 °FClear.6 mph88%29.68 "HgN/A
1:30 AM70 °FClear.6 mph88%29.68 "HgN/A
1:00 AM70 °FClear.6 mph88%29.68 "HgN/A
12:30 AM70 °FClear.6 mph94%29.71 "HgN/A
12:00 AM70 °FClear.8 mph94%29.71 "HgN/A
11:30 PM
Tue, Jun 28
70 °FClear.3 mph94%29.68 "HgN/A
11:00 PM72 °FClear.6 mph88%29.68 "HgN/A
10:30 PM72 °FClear.6 mph88%29.68 "HgN/A
10:00 PM72 °FPassing clouds.3 mph88%29.68 "HgN/A
9:30 PM72 °FClear.3 mph88%29.68 "HgN/A
9:00 PM73 °FClear.3 mph83%29.68 "HgN/A
8:30 PM75 °FClear.3 mph78%29.68 "HgN/A
8:00 PM77 °FClear.8 mph79%29.68 "HgN/A
7:30 PM79 °FClear.3 mph70%29.68 "HgN/A
7:00 PM81 °FClear.6 mph66%29.65 "HgN/A
6:30 PM82 °FClear.3 mph66%29.65 "HgN/A
6:00 PM82 °FClear.3 mph62%29.65 "HgN/A
5:30 PM82 °FClear.3 mph62%29.65 "HgN/A
5:00 PM82 °FClear.6 mph62%29.65 "HgN/A
4:30 PM82 °FClear.6 mph58%29.68 "HgN/A
4:00 PM81 °FScattered clouds.8 mph70%29.68 "HgN/A
3:30 PM81 °FPartly sunny.6 mph74%29.68 "HgN/A
3:00 PM77 °FSprinkles. Partly sunny.3 mph83%29.68 "HgN/A
Weather by CustomWeather, © 2016

See weather overviewHow to use our weather pages